[[{"header":{"parameterUnit":"m.s-1","parameterCategory":1,"la1":30.2991,"la2":30.254,"lo1":-89.0895,"lo2":-89.0444,"dy":0.0017,"dx":0.0017,"nx":28,"ny":28,"refTime":"2024-05-02T09:00:00:Z","depth":0,"parameterNumber":2,"parameterNumberName":"U-component_of_WINDS"},"data":[0,0,0,0,0,0,0,0,0,0,0,0,0,0,0,0,0,0,0,0,0,0,0,0,0,0,0,0,0,0,0,0,0,0,0,0,0,0,0,0,0,0,0,0,0,0,0,0,0,0,0,0,0,0,0,0,0,0,-1.3088,-1.3088,0,-1.3099,-1.3099,-1.3099,-1.307,-1.3069,-1.3068,-1.3067,-1.3077,-1.3079,-1.308,0,0,0,0,0,0,0,0,0,0,0,0,0,-1.3042,-1.3043,-1.3088,-1.3088,-1.3088,-1.3099,-1.3099,-1.3099,-1.307,-1.3069,-1.3068,-1.3067,-1.3077,-1.3078,-1.308,0,0,0,0,0,0,0,0,0,0,0,0,0,-1.3058,-1.3043,-1.3088,-1.3075,-1.3074,-1.3099,-1.3099,-1.3099,-1.3071,-1.3069,-1.3068,-1.3067,-1.3077,-1.3078,-1.308,-1.3117,0,0,-1.3085,-1.3086,0,0,0,0,0,0,0,0,-1.3057,-1.306,-1.3077,-1.3076,-1.3075,-1.3082,-1.3086,-1.3105,-1.3071,-1.3072,-1.3067,-1.3066,-1.308,-1.3081,-1.3086,-1.3118,-1.3118,-1.3085,-1.3086,-1.3087,-1.3087,0,0,0,0,0,0,0,-1.3056,-1.3059,-1.3092,-1.3077,-1.3076,-1.3069,-1.307,-1.309,-1.3083,-1.3072,-1.307,-1.3071,-1.3079,-1.3085,-1.3086,-1.3118,-1.3085,-1.3087,-1.3088,-1.3088,-1.3182,-1.3183,0,0,0,0,0,0,-1.3057,-1.3059,-1.3092,-1.3093,-1.3063,-1.3071,-1.3072,-1.3081,-1.3083,-1.3082,-1.3073,-1.307,-1.3082,-1.3084,-1.3086,-1.3131,-1.3087,-1.3088,-1.3089,-1.318,-1.3182,-1.3184,0,0,0,0,0,0,-1.3056,-1.306,-1.3092,-1.3075,-1.3079,-1.3073,-1.3084,-1.3082,-1.3087,-1.3084,-1.3082,-1.3079,-1.3081,-1.3084,-1.311,-1.3131,-1.3089,-1.3091,-1.3179,-1.3181,-1.3183,-1.322,0,0,0,0,0,0,-1.3055,-1.306,-1.3074,-1.3076,-1.308,-1.3115,-1.3085,-1.3083,-1.3091,-1.3087,-1.309,-1.3089,-1.3081,-1.3108,-1.3112,-1.3132,-1.3092,-1.3177,-1.318,-1.3182,-1.3217,-1.3223,-1.3229,0,0,0,0,0,-1.3053,-1.3084,-1.3075,-1.3079,-1.3097,-1.3117,-1.3119,-1.3109,-1.3092,-1.3107,-1.3104,-1.3089,-1.3128,-1.3111,-1.3115,-1.3136,-1.3175,-1.3179,-1.3182,-1.3214,-1.3222,-1.3228,0,0,0,0,0,0,-1.3084,-1.3084,-1.3074,-1.3106,-1.3112,-1.3112,-1.3129,-1.3117,-1.3127,-1.3124,-1.3111,-1.3112,-1.314,-1.3141,-1.3122,-1.3173,-1.3149,-1.3153,-1.3172,-1.3179,-1.3185,-1.3184,-1.3093,0,0,0,0,0,-1.3095,-1.3111,-1.3109,-1.3137,-1.3141,-1.3135,-1.3143,-1.3135,-1.314,-1.3142,-1.3142,-1.3147,-1.3161,-1.317,-1.3182,-1.3217,-1.3217,-1.3234,-1.3239,-1.3244,-1.3248,-1.3268,-1.3275,-1.3195,-1.3195,-1.3195,0,0,-1.3116,-1.3118,-1.3129,-1.3144,-1.3147,-1.3164,-1.3137,-1.3156,-1.3168,-1.3145,-1.317,-1.317,-1.3175,-1.3206,-1.3219,-1.3207,-1.3271,-1.3249,-1.3253,-1.3254,-1.3272,-1.3279,-1.3286,-1.3197,-1.3197,-1.3196,0,0,-1.3165,-1.3168,-1.3192,-1.3197,-1.3203,-1.3198,-1.3204,-1.3206,-1.3206,-1.3231,-1.3214,-1.3228,-1.3252,-1.3256,-1.3262,-1.3313,-1.33,-1.3318,-1.3348,-1.3367,-1.3374,-1.3379,-1.3398,-1.3405,-1.3322,-1.3322,-1.3322,0,-1.3191,-1.3217,-1.3206,-1.3227,-1.3234,-1.3214,-1.3239,-1.3243,-1.3253,-1.3258,-1.3245,-1.3274,-1.3276,-1.3308,-1.3321,-1.3326,-1.3333,-1.3317,-1.3374,-1.3379,-1.3384,-1.3402,-1.3409,-1.3324,-1.3324,-1.3323,-1.3323,0,-1.3249,-1.3267,-1.3286,-1.3296,-1.3306,-1.3328,-1.3321,-1.3332,-1.3323,-1.332,-1.3346,-1.3348,-1.3361,-1.3368,-1.3359,-1.3399,-1.3391,-1.3376,-1.3351,-1.3394,-1.3411,-1.3418,-1.3327,-1.3326,-1.3326,-1.3325,0,0,-1.3317,-1.3323,-1.333,-1.3335,-1.334,-1.3354,-1.3375,-1.3388,-1.3398,-1.3405,-1.3423,-1.3444,-1.343,-1.3436,-1.3428,-1.3445,-1.3487,-1.3427,-1.3427,-1.3439,-1.3531,-1.3543,-1.3551,-1.3478,-1.3479,-1.348,-1.3531,0,-1.3366,-1.3404,-1.3395,-1.3433,-1.3449,-1.3431,-1.345,-1.3456,-1.3454,-1.3468,-1.3465,-1.3481,-1.3461,-1.3465,-1.348,-1.3478,-1.3505,-1.3474,-1.3494,-1.3495,-1.3494,-1.356,-1.3573,-1.3621,-1.3537,-1.3538,-1.3539,0,-1.3428,-1.3438,-1.3478,-1.3482,-1.3488,-1.3505,-1.3517,-1.353,-1.3536,-1.3534,-1.3541,-1.353,-1.3552,-1.3527,-1.3557,-1.3536,-1.3544,-1.3544,-1.3546,-1.3548,-1.352,-1.3564,-1.3636,-1.3644,-1.3549,-1.3549,-1.3548,0,-1.3475,-1.3499,-1.3525,-1.353,-1.3535,-1.3548,-1.355,-1.3555,-1.3564,-1.3574,-1.3579,-1.3591,-1.3598,-1.3608,-1.3601,-1.3583,-1.3632,-1.3606,-1.3631,-1.3631,-1.3642,-1.3641,-1.3717,-1.3646,-1.3646,-1.3646,-1.3646,0,-1.353,-1.3555,-1.3547,-1.3563,-1.3591,-1.3581,-1.3608,-1.3609,-1.3613,-1.3629,-1.3614,-1.363,-1.3619,-1.3633,-1.3628,-1.3654,-1.3656,-1.3655,-1.3653,-1.3657,-1.3657,-1.3662,-1.3659,-1.3648,-1.3647,-1.3647,-1.3647,0,-1.3587,-1.3583,-1.3611,-1.3614,-1.3615,-1.3635,-1.3637,-1.3653,-1.365,-1.3671,-1.3675,-1.3671,-1.3687,-1.3681,-1.3698,-1.3694,-1.3728,-1.3721,-1.3726,-1.3725,-1.375,-1.3748,-1.3831,-1.3842,-1.3764,-1.3765,-1.3765,0,-1.3623,-1.3642,-1.3647,-1.3658,-1.3662,-1.3678,-1.3687,-1.3678,-1.3688,-1.3697,-1.3711,-1.3726,-1.3738,-1.3765,-1.3764,-1.3777,-1.3771,-1.3799,-1.3773,-1.3776,-1.3772,-1.3772,-1.3774,-1.3805,-1.3806,-1.3807,-1.3807,0,-1.3688,-1.3685,-1.3699,-1.3713,-1.3724,-1.3734,-1.3743,-1.3752,-1.3743,-1.3755,-1.3773,-1.3782,-1.38,-1.3816,-1.3828,-1.383,-1.3817,-1.3815,-1.3822,-1.3826,-1.3828,-1.3828,-1.3741,-1.3814,-1.3813,-1.3812,-1.3812,-1.3812,-1.3737,-1.3753,-1.3759,-1.3776,-1.3781,-1.379,-1.3805,-1.3805,-1.3819,-1.3833,-1.3827,-1.3847,-1.3853,-1.3868,-1.3872,-1.3887,-1.3876,-1.3885,-1.3888,-1.389,-1.3894,-1.3826,-1.3889,-1.3889,-1.3889,-1.3889,-1.3889,0,-1.3802,-1.3805,-1.382,-1.3833,-1.3846,-1.3834,-1.3842,-1.3854,-1.3872,-1.3879,-1.3891,-1.3911,-1.3926,-1.3926,-1.394,-1.3952,-1.3947,-1.3957,-1.3956,-1.3957,-1.3903,-1.3896,-1.3961,-1.3961,-1.3961,-1.3961,-1.3961,-1.3961,-1.3837,-1.3864,-1.3862,-1.3892,-1.3895,-1.3915,-1.3922,-1.393,-1.3935,-1.3958,-1.3971,-1.3971,-1.3975,-1.3989,-1.4003,-1.4002,-1.4008,-1.402,-1.4018,-1.3967,-1.396,-1.3954,-1.3947,-1.4021,-1.4022,-1.407,-1.4071,-1.4071]},{"header":{"parameterUnit":"m.s-1","parameterCategory":1,"la1":30.2991,"la2":30.254,"lo1":-89.0895,"lo2":-89.0444,"dy":0.0017,"dx":0.0017,"nx":28,"ny":28,"refTime":"2024-05-02T09:00:00:Z","depth":0,"parameterNumber":3,"parameterNumberName":"V-component_of_WINDS"},"data":[0,0,0,0,0,0,0,0,0,0,0,0,0,0,0,0,0,0,0,0,0,0,0,0,0,0,0,0,0,0,0,0,0,0,0,0,0,0,0,0,0,0,0,0,0,0,0,0,0,0,0,0,0,0,0,0,0,0,2.1169,2.1169,0,2.1174,2.1174,2.1175,2.1156,2.1155,2.1155,2.1154,2.1158,2.1159,2.1159,0,0,0,0,0,0,0,0,0,0,0,0,0,2.1141,2.1142,2.1169,2.1169,2.1169,2.1174,2.1174,2.1175,2.1156,2.1155,2.1154,2.1154,2.1158,2.1159,2.1159,0,0,0,0,0,0,0,0,0,0,0,0,0,2.115,2.1142,2.1169,2.116,2.116,2.1174,2.1174,2.1175,2.1156,2.1155,2.1154,2.1154,2.1158,2.1158,2.1159,2.1182,0,0,2.1162,2.1163,0,0,0,0,0,0,0,0,2.115,2.1151,2.1161,2.1161,2.116,2.1164,2.1166,2.1177,2.1156,2.1157,2.1154,2.1153,2.116,2.1161,2.1164,2.1182,2.1182,2.1162,2.1163,2.1163,2.1164,0,0,0,0,0,0,0,2.1149,2.1151,2.1171,2.1162,2.1161,2.1156,2.1156,2.1168,2.1163,2.1157,2.1156,2.1157,2.116,2.1163,2.1164,2.1182,2.1162,2.1163,2.1164,2.1164,2.1221,2.1222,0,0,0,0,0,0,2.115,2.1151,2.1171,2.1171,2.1153,2.1157,2.1158,2.1163,2.1163,2.1162,2.1158,2.1156,2.1162,2.1163,2.1164,2.1191,2.1163,2.1164,2.1165,2.122,2.1221,2.1222,0,0,0,0,0,0,2.1149,2.1152,2.117,2.1161,2.1163,2.1159,2.1165,2.1164,2.1167,2.1164,2.1163,2.1162,2.1161,2.1163,2.1178,2.1191,2.1165,2.1166,2.1219,2.1221,2.1222,2.1246,0,0,0,0,0,0,2.1149,2.1152,2.116,2.1161,2.1163,2.1185,2.1166,2.1165,2.1169,2.1167,2.1167,2.1166,2.1161,2.1177,2.1179,2.1192,2.1166,2.1218,2.122,2.1221,2.1244,2.1248,2.1251,0,0,0,0,0,2.1148,2.1166,2.1161,2.1163,2.1174,2.1186,2.1187,2.118,2.117,2.1179,2.1177,2.1166,2.119,2.1179,2.1181,2.1194,2.1217,2.1219,2.1221,2.1242,2.1247,2.1251,0,0,0,0,0,0,2.1166,2.1166,2.116,2.1179,2.1183,2.1182,2.1193,2.1186,2.1191,2.1189,2.118,2.1181,2.1198,2.1198,2.1186,2.1217,2.1201,2.1204,2.1217,2.1221,2.1225,2.1225,2.1167,0,0,0,0,0,2.1172,2.1182,2.1182,2.1199,2.1201,2.1197,2.1202,2.1197,2.1199,2.12,2.12,2.1202,2.1211,2.1216,2.1223,2.1244,2.1244,2.1254,2.1258,2.1261,2.1264,2.1276,2.1281,2.1229,2.1229,2.1229,0,0,2.1185,2.1187,2.1193,2.1202,2.1204,2.1215,2.1198,2.1209,2.1217,2.1202,2.1217,2.1217,2.1219,2.1238,2.1246,2.1238,2.1278,2.1264,2.1267,2.1267,2.1279,2.1284,2.1288,2.1231,2.1231,2.123,0,0,2.1214,2.1216,2.1231,2.1234,2.1238,2.1236,2.1239,2.1241,2.124,2.1255,2.1245,2.1254,2.1267,2.127,2.1273,2.1306,2.1297,2.1308,2.1328,2.134,2.1344,2.1348,2.136,2.1364,2.1311,2.1311,2.1311,0,2.123,2.1245,2.124,2.1252,2.1257,2.1245,2.1261,2.1264,2.1269,2.1273,2.1264,2.1282,2.1283,2.1303,2.1311,2.1314,2.1318,2.1308,2.1344,2.1348,2.1351,2.1362,2.1367,2.1312,2.1312,2.1312,2.1312,0,2.1265,2.1276,2.1288,2.1295,2.1301,2.1315,2.1311,2.1318,2.1313,2.1311,2.1328,2.1329,2.1336,2.1341,2.1335,2.136,2.1355,2.1346,2.133,2.1357,2.1368,2.1372,2.1314,2.1314,2.1313,2.1313,0,0,2.1304,2.1309,2.1314,2.1318,2.1322,2.1331,2.1344,2.1353,2.1359,2.1364,2.1376,2.1389,2.138,2.1384,2.1379,2.1389,2.1416,2.1378,2.1378,2.1386,2.1445,2.1452,2.1458,2.1411,2.1411,2.1412,2.1445,0,2.1333,2.1358,2.1354,2.1377,2.1388,2.1378,2.139,2.1395,2.1394,2.1403,2.1402,2.1412,2.1399,2.1402,2.1412,2.1411,2.1428,2.1408,2.1421,2.1422,2.1421,2.1463,2.1471,2.1502,2.1449,2.145,2.145,0,2.137,2.1378,2.1403,2.1408,2.1412,2.1423,2.1431,2.144,2.1445,2.1444,2.1449,2.1443,2.1457,2.1441,2.146,2.1447,2.1452,2.1453,2.1454,2.1455,2.1438,2.1465,2.1511,2.1516,2.1456,2.1456,2.1455,0,2.1397,2.1414,2.1431,2.1435,2.144,2.1449,2.1451,2.1455,2.1461,2.1468,2.1472,2.1481,2.1485,2.1492,2.1488,2.1477,2.1509,2.1492,2.1508,2.1508,2.1515,2.1514,2.1562,2.1518,2.1518,2.1518,2.1518,0,2.143,2.1446,2.1444,2.1455,2.1473,2.1468,2.1486,2.1487,2.1491,2.1502,2.1494,2.1504,2.1498,2.1508,2.1505,2.1522,2.1524,2.1524,2.1523,2.1525,2.1525,2.1528,2.1526,2.1519,2.1519,2.1518,2.1518,0,2.1462,2.1462,2.1481,2.1485,2.1487,2.15,2.1503,2.1514,2.1513,2.1527,2.153,2.1529,2.1541,2.1538,2.155,2.1548,2.157,2.1566,2.1568,2.1567,2.1584,2.1582,2.1635,2.1642,2.1593,2.1593,2.1594,0,2.1484,2.1496,2.1503,2.151,2.1514,2.1525,2.1532,2.1528,2.1536,2.1543,2.1553,2.1564,2.1572,2.1591,2.1591,2.1601,2.1597,2.1615,2.1598,2.16,2.1598,2.1598,2.1599,2.1618,2.1619,2.1619,2.162,0,2.1522,2.1521,2.1532,2.1543,2.1551,2.1559,2.1566,2.1573,2.157,2.1579,2.1591,2.1598,2.1611,2.1622,2.1632,2.1634,2.1626,2.1625,2.1629,2.1632,2.1633,2.1633,2.1578,2.1624,2.1623,2.1623,2.1623,2.1623,2.1549,2.1561,2.1568,2.158,2.1586,2.1593,2.1604,2.1605,2.1616,2.1627,2.1624,2.1639,2.1644,2.1656,2.1659,2.167,2.1663,2.1669,2.1671,2.1673,2.1675,2.1631,2.1672,2.1672,2.1672,2.1672,2.1671,0,2.1588,2.1592,2.1604,2.1615,2.1625,2.1619,2.1627,2.1635,2.1649,2.1655,2.1664,2.1679,2.169,2.1692,2.1703,2.1711,2.1708,2.1714,2.1714,2.1715,2.168,2.1676,2.1717,2.1717,2.1717,2.1717,2.1717,2.1717,2.1609,2.1628,2.1629,2.1651,2.1655,2.167,2.1675,2.1682,2.1687,2.1705,2.1715,2.1716,2.1721,2.1732,2.1742,2.1743,2.1747,2.1754,2.1753,2.1721,2.1717,2.1712,2.1708,2.1755,2.1755,2.1787,2.1787,2.1787]}]]